Probability
23 19 16 16 13 10 6 6 6 3 0 0 0 0 0 0 0 0 0 0 0 0 0 0 0 0 0 0 0 0 0 0 0 0 0 0 0 0 0 0 0 0 0
26 19 19 19 16 13 13 13 10 3 0 0 0 0 0 3 3 0 0 0 0 0 0 0 0 0 0 0 0 0 0 0 0 0 0 0 0 0 0 0 0 0 0
23 19 19 19 23 23 19 16 16 6 3 0 0 0 0 0 3 3 0 0 0 0 0 0 0 0 0 0 0 0 0 0 0 0 0 0 0 0 0 0 0 0 0
26 26 23 26 23 19 19 23 16 13 6 3 3 3 3 3 3 3 3 0 0 0 0 0 0 0 0 0 0 0 0 0 0 0 0 0 0 0 0 0 0 0 0
29 26 26 23 19 16 13 16 16 13 16 0 0 0 0 0 0 0 0 0 0 0 0 0 0 0 0 0 0 0 0 0 0 0 0 0 0 0 0 0 0 0 0
23 16 19 16 19 13 13 19 23 19 16 13 3 0 0 0 0 0 0 0 0 0 0 0 0 0 0 0 0 0 0 0 0 0 0 0 0 0 0 0 0 0 0
13 10 13 13 19 16 19 10 16 13 10 10 6 10 10 0 0 0 0 0 0 0 0 0 0 0 0 0 0 0 0 0 0 0 0 0 0 0 0 0 0 0 0
3 6 13 13 13 13 13 13 6 10 10 6 6 3 3 3 0 0 0 0 0 0 0 0 0 0 0 0 0 0 0 0 0 0 0 0 0 0 0 0 0 0 0
3 3 6 13 16 16 19 16 3 3 3 6 3 3 3 3 0 0 0 0 0 0 0 0 0 0 0 0 0 0 0 0 0 0 0 0 0 0 0 0 0 0 0
3 3 6 6 6 3 3 0 0 0 0 0 0 0 0 0 0 0 0 0 0 0 0 0 0 0 0 0 0 0 0 0 0 0 0 0 0 0 0 0 0 0 0
0 0 0 0 0 0 0 0 0 0 0 0 0 0 0 0 0 0 0 0 0 0 0 0 0 0 0 0 0 0 0 0 0 0 0 0 0 0 0 0 0 0 0
0 0 0 0 0 0 0 0 0 0 0 0 0 0 0 0 0 0 0 0 0 0 0 0 0 0 0 0 0 0 0 0 0 0 0 0 0 0 0 0 0 0 0
0 0 0 0 0 0 0 0 0 0 0 0 0 0 0 0 0 0 0 0 0 0 0 0 0 0 0 0 0 0 0 0 0 0 0 0 0 0 0 0 0 0 0
0 0 0 0 0 0 0 0 0 0 0 0 0 0 0 0 0 0 0 0 0 0 0 0 0 0 0 0 0 0 0 0 0 0 0 0 0 0 0 0 0 0 0
0 0 0 0 0 0 0 0 0 0 0 0 0 0 0 0 0 0 0 0 0 0 0 0 0 0 0 0 0 0 0 0 0 0 0 0 0 0 0 0 0 0 0
0 0 0 0 0 0 0 0 0 0 0 0 0 0 0 0 0 0 0 0 0 0 0 0 0 0 0 0 0 0 0 0 0 0 0 0 0 0 0 0 0 0 0
0 0 0 0 0 0 0 0 0 0 0 0 0 0 0 0 0 0 0 0 0 0 0 0 0 0 0 0 0 0 0 0 0 0 0 0 0 0 0 0 0 0 0
0 0 0 0 0 0 0 0 0 0 0 0 0 0 0 0 0 0 0 0 0 0 0 0 0 0 0 0 0 0 0 0 0 0 0 0 0 0 0 0 0 0 0
0 0 0 0 0 0 0 0 0 0 0 0 0 0 0 0 0 0 0 0 0 0 0 0 0 0 0 0 0 0 0 0 0 0 0 0 0 0 0 0 0 0 0
0 0 0 0 0 0 0 0 0 0 0 0 0 0 0 0 0 0 0 0 0 0 0 0 0 0 0 0 0 0 0 0 0 0 0 0 0 0 0 0 0 0 0
0 0 0 0 0 0 0 0 0 0 0 0 0 0 0 0 0 0 0 0 0 0 0 0 0 0 0 0 0 0 0 0 0 0 0 0 0 0 0 0 0 0 0
0 0 0 0 0 0 0 0 0 0 0 0 0 0 0 0 0 0 0 0 0 0 0 0 0 0 0 0 0 0 0 0 0 0 0 0 0 0 0 0 0 0 0
0 0 0 0 0 0 0 0 0 0 0 0 0 0 0 0 0 0 0 0 0 0 0 0 0 0 0 0 0 0 0 0 0 0 0 0 0 0 0 0 0 0 0
0 0 0 0 0 0 0 0 0 0 0 0 0 0 0 0 0 0 0 0 0 0 0 0 0 0 0 0 0 0 0 0 0 0 0 0 0 0 0 0 0 0 0
0 0 0 0 0 0 0 0 0 0 0 0 0 0 0 0 0 0 0 0 0 0 0 0 0 0 0 0 0 0 0 0 0 0 0 0 0 0 0 0 0 0 0
0 0 0 0 0 0 0 0 0 0 0 0 0 0 0 0 0 0 0 0 0 0 0 0 0 0 0 0 0 0 0 0 0 0 0 0 0 0 0 0 0 0 0
Height
5840 5841 5843 5845 5846 5848 5849 5851 5851 5852 5853 5854 5855 5856 5856 5856 5856 5856 5856 5856 5855 5855 5854 5854 5853 5852 5851 5850 5849 5848 5848 5847 5846 5845 5844 5843 5842 5841 5840 5839 5838 5837 5836
5837 5838 5840 5841 5842 5844 5845 5847 5847 5848 5849 5850 5850 5851 5851 5851 5851 5850 5850 5850 5849 5849 5848 5848 5847 5846 5845 5844 5843 5842 5841 5840 5840 5838 5837 5836 5835 5834 5833 5832 5831 5830 5829
5834 5835 5836 5837 5838 5839 5840 5842 5842 5843 5843 5844 5844 5845 5845 5845 5844 5844 5844 5843 5843 5842 5842 5841 5840 5839 5838 5837 5836 5835 5834 5833 5832 5831 5830 5829 5828 5827 5825 5824 5823 5822 5821
5830 5831 5832 5833 5834 5834 5835 5836 5836 5836 5837 5837 5837 5838 5838 5837 5837 5837 5836 5836 5836 5835 5834 5833 5832 5831 5830 5829 5828 5827 5826 5825 5824 5823 5822 5820 5819 5818 5817 5816 5815 5814 5813
5826 5827 5828 5828 5828 5829 5829 5829 5829 5830 5829 5829 5830 5830 5829 5829 5829 5828 5828 5827 5827 5826 5825 5824 5823 5822 5821 5820 5819 5818 5817 5816 5815 5814 5813 5812 5810 5809 5808 5807 5806 5804 5803
5821 5822 5822 5822 5822 5822 5822 5822 5822 5822 5821 5821 5821 5821 5821 5821 5820 5819 5819 5818 5818 5817 5816 5815 5814 5813 5812 5811 5810 5809 5808 5806 5805 5803 5802 5801 5800 5798 5797 5796 5796 5795 5794
5816 5814 5814 5814 5815 5815 5815 5814 5814 5813 5813 5813 5812 5812 5811 5810 5810 5810 5809 5809 5808 5807 5806 5805 5804 5803 5802 5801 5800 5799 5798 5796 5794 5792 5791 5790 5789 5787 5785 5785 5783 5783 5782
5811 5810 5809 5807 5808 5808 5808 5807 5806 5804 5804 5804 5803 5802 5801 5801 5801 5800 5799 5798 5798 5797 5796 5795 5794 5792 5791 5789 5788 5788 5786 5784 5782 5780 5779 5778 5776 5775 5773 5771 5770 5769 5769
5804 5803 5803 5802 5802 5801 5801 5799 5797 5796 5796 5796 5795 5793 5792 5791 5791 5790 5789 5788 5787 5786 5785 5783 5782 5781 5779 5777 5776 5776 5774 5772 5769 5767 5766 5765 5763 5761 5758 5757 5755 5754 5754
5797 5796 5795 5794 5793 5792 5791 5790 5789 5788 5787 5786 5785 5784 5783 5782 5781 5780 5779 5777 5776 5775 5773 5771 5770 5769 5767 5765 5764 5762 5761 5759 5756 5754 5753 5751 5749 5746 5744 5741 5739 5738 5737
5791 5789 5788 5786 5785 5784 5782 5781 5780 5779 5777 5776 5776 5775 5773 5772 5771 5769 5768 5766 5765 5763 5761 5760 5758 5756 5754 5752 5750 5748 5746 5744 5742 5740 5738 5736 5734 5731 5728 5725 5723 5720 5719
5784 5782 5781 5779 5778 5776 5774 5772 5771 5770 5768 5767 5766 5765 5763 5762 5761 5759 5757 5755 5753 5751 5749 5747 5745 5743 5741 5738 5736 5733 5731 5728 5726 5724 5721 5719 5717 5714 5711 5708 5705 5702 5700
5777 5775 5773 5771 5769 5767 5766 5764 5762 5761 5759 5758 5756 5754 5752 5751 5749 5747 5745 5743 5741 5739 5736 5734 5731 5729 5726 5723 5720 5717 5714 5711 5708 5705 5702 5700 5697 5694 5690 5687 5684 5681 5680
5768 5766 5765 5763 5761 5759 5757 5755 5753 5751 5750 5748 5746 5744 5741 5739 5737 5735 5732 5729 5727 5725 5722 5719 5716 5713 5709 5706 5702 5698 5695 5691 5687 5684 5681 5678 5675 5672 5668 5665 5662 5659 5657
5759 5757 5756 5754 5752 5749 5747 5745 5743 5741 5739 5737 5734 5732 5729 5727 5724 5721 5718 5715 5712 5709 5706 5703 5699 5695 5691 5687 5683 5678 5674 5670 5666 5662 5659 5656 5652 5649 5646 5642 5638 5636 5634
5750 5748 5746 5744 5742 5739 5737 5734 5732 5730 5727 5724 5721 5719 5716 5713 5710 5707 5703 5700 5696 5693 5689 5685 5681 5676 5672 5668 5663 5659 5654 5649 5645 5640 5637 5633 5630 5626 5623 5619 5615 5612 5611
5742 5739 5736 5734 5731 5729 5726 5723 5720 5717 5714 5711 5708 5704 5701 5698 5695 5691 5687 5683 5679 5675 5671 5666 5662 5657 5653 5648 5643 5638 5634 5629 5624 5619 5615 5611 5607 5604 5600 5598 5594 5591 5590
5732 5729 5727 5724 5721 5718 5715 5711 5708 5704 5701 5697 5694 5690 5686 5682 5678 5674 5671 5666 5662 5657 5653 5648 5643 5638 5633 5628 5623 5618 5613 5608 5603 5599 5595 5591 5587 5584 5581 5578 5575 5573 5571
5722 5719 5716 5713 5709 5706 5702 5698 5694 5691 5687 5683 5679 5675 5670 5666 5662 5658 5653 5649 5645 5640 5635 5630 5625 5620 5615 5610 5605 5600 5594 5590 5586 5582 5578 5574 5570 5566 5563 5560 5558 5556 5554
5711 5708 5704 5701 5697 5693 5689 5684 5680 5676 5672 5667 5663 5659 5654 5650 5645 5641 5636 5632 5627 5623 5618 5613 5608 5603 5599 5594 5589 5584 5579 5575 5571 5568 5564 5560 5556 5552 5548 5546 5543 5542 5540
5700 5696 5692 5688 5684 5679 5675 5670 5666 5661 5657 5652 5648 5643 5639 5634 5630 5625 5621 5617 5612 5608 5603 5598 5594 5589 5584 5580 5576 5572 5567 5564 5560 5556 5552 5548 5544 5539 5536 5533 5531 5529 5528
5688 5684 5680 5675 5671 5666 5661 5656 5651 5646 5642 5637 5633 5628 5624 5620 5616 5611 5607 5603 5599 5594 5590 5585 5581 5576 5572 5569 5565 5561 5557 5554 5550 5546 5542 5537 5533 5529 5526 5523 5521 5520 5519
5675 5671 5666 5662 5657 5652 5647 5642 5637 5632 5628 5623 5619 5615 5611 5607 5603 5598 5594 5590 5586 5583 5578 5575 5571 5567 5563 5559 5556 5552 5549 5546 5542 5538 5535 5530 5526 5522 5519 5516 5514 5513 5511
5662 5658 5653 5648 5643 5638 5633 5628 5624 5619 5615 5611 5607 5603 5599 5595 5591 5588 5584 5580 5577 5573 5569 5566 5562 5559 5555 5551 5547 5544 5541 5538 5535 5532 5528 5525 5521 5517 5514 5511 5509 5507 5506
5650 5645 5641 5636 5631 5626 5621 5616 5611 5607 5603 5599 5596 5592 5589 5585 5581 5578 5575 5571 5568 5565 5562 5558 5555 5551 5547 5544 5540 5537 5534 5532 5529 5526 5523 5520 5516 5513 5510 5508 5505 5503 5501
5637 5633 5628 5624 5619 5614 5610 5605 5601 5597 5593 5589 5586 5582 5579 5576 5572 5569 5566 5563 5560 5557 5554 5551 5548 5545 5541 5538 5535 5532 5529 5527 5524 5521 5518 5516 5513 5510 5507 5505 5502 5500 5498
Wind_Speed
11 13 14 16 17 18 18 19 19 19 19 19 19 19 19 19 19 19 19 19 19 19 19 19 18 18 18 18 19 19 19 19 19 18 18 19 19 19 20 20 20 20 20
12 14 15 17 18 19 19 20 20 21 21 21 21 21 22 22 22 21 22 22 22 22 22 22 21 21 21 21 21 22 22 22 22 22 22 22 22 22 23 23 23 23 23
13 14 16 17 18 19 20 21 21 22 22 23 23 24 24 24 24 24 24 24 24 24 24 24 24 24 24 24 24 24 25 25 25 25 25 25 25 25 25 26 26 26 26
12 13 15 17 18 19 21 22 24 24 24 25 25 26 27 27 27 27 27 27 27 27 27 27 27 27 27 28 27 28 28 28 28 28 28 28 28 28 28 29 29 29 30
14 14 15 18 19 21 22 24 25 26 26 27 27 28 29 29 29 30 30 30 30 30 30 30 30 30 30 31 31 31 31 31 31 31 30 31 31 32 32 32 32 32 33
17 17 19 20 22 23 24 25 26 26 27 27 29 31 31 31 31 32 32 32 32 32 32 32 32 33 34 34 35 35 35 34 34 34 34 34 35 35 35 35 35 35 35
18 20 20 22 23 24 25 25 25 25 27 29 30 32 32 33 33 34 35 34 33 33 33 34 35 35 36 37 37 37 37 37 37 38 38 38 38 39 40 39 40 40 39
21 21 22 21 23 24 24 25 26 26 27 29 29 31 32 33 33 33 34 34 34 34 35 35 35 36 37 38 38 38 38 39 40 41 41 41 42 42 43 43 44 44 44
23 23 23 24 25 25 26 26 27 27 29 31 32 32 31 32 32 33 34 34 34 35 36 36 38 39 39 40 41 41 40 41 43 44 44 44 45 46 47 47 47 48 46
23 23 25 26 27 27 27 27 28 28 28 30 30 31 31 31 32 34 34 35 35 36 37 38 38 40 41 42 43 43 43 43 44 45 46 46 47 48 50 51 51 52 51
25 26 27 27 27 28 28 28 28 28 29 29 30 30 32 32 32 33 34 34 36 37 38 39 40 40 41 43 44 45 45 46 47 48 50 50 51 52 53 55 56 57 56
27 27 28 28 29 30 30 29 29 29 29 30 31 32 33 33 34 36 36 37 37 38 39 40 41 43 44 45 46 48 49 51 52 53 54 54 55 57 58 59 60 61 61
29 29 30 30 30 30 31 31 32 32 32 33 33 35 36 37 38 39 40 41 41 42 42 44 45 46 47 49 51 53 55 56 57 58 59 60 61 62 63 64 64 64 64
31 31 31 32 32 32 32 32 33 33 34 35 36 37 38 39 40 40 41 41 42 44 46 48 49 51 52 53 55 56 58 60 61 62 63 64 64 65 66 67 67 67 67
33 33 33 33 34 34 34 34 34 34 35 36 37 38 39 41 42 44 45 46 47 49 50 52 53 54 55 56 57 59 60 61 62 63 64 64 65 66 67 67 68 68 67
33 33 34 34 35 35 36 36 36 37 38 39 41 42 43 44 46 47 49 50 51 52 53 54 55 55 56 58 59 60 61 62 62 63 63 64 64 65 65 64 64 64 64
32 33 34 34 35 35 36 37 38 40 40 41 43 44 45 47 48 49 50 51 52 53 54 55 56 57 57 58 59 59 60 61 61 61 61 61 60 60 58 57 57 57 57
33 34 35 35 36 37 38 39 40 41 42 44 45 47 48 49 50 51 51 52 53 53 54 55 55 55 55 55 56 57 57 57 57 56 55 54 53 53 52 52 52 52 52
34 35 36 37 38 40 41 42 43 44 45 46 47 48 49 50 51 51 51 52 52 52 52 52 51 51 52 52 52 52 51 50 49 48 47 47 46 47 47 47 47 47 46
35 37 38 39 40 41 42 43 45 46 47 47 48 49 49 49 49 50 50 49 49 49 48 47 47 47 46 45 44 43 42 41 40 40 40 41 42 41 41 40 40 39 40
38 39 40 40 41 43 44 45 46 47 48 48 48 48 47 47 47 47 46 45 44 43 43 42 42 41 40 39 37 36 35 34 34 35 35 36 35 35 35 34 34 33 33
39 40 40 41 43 44 45 46 46 46 46 46 45 45 44 44 43 43 41 40 39 38 37 37 35 33 32 32 31 30 29 29 28 29 30 30 29 28 28 28 27 27 27
40 41 42 43 43 44 44 44 44 44 43 43 41 41 40 40 39 38 37 36 35 33 31 29 29 28 28 27 27 26 25 24 25 25 25 24 23 23 22 21 21 22 22
41 41 42 42 42 42 42 42 41 40 39 38 38 37 36 36 34 33 32 31 29 28 26 26 26 26 25 25 24 24 23 23 22 22 21 21 20 19 19 19 19 18 18
40 40 40 40 40 40 39 38 37 36 36 35 34 33 32 31 30 28 27 26 25 25 24 24 24 24 23 22 21 20 20 20 19 19 18 18 17 16 16 15 15 15 15
38 38 38 38 37 37 36 35 34 33 32 31 30 29 28 27 26 25 25 24 23 23 23 22 22 21 20 19 18 18 18 18 18 18 17 16 16 15 15 15 15 14 14
Wind_Direction
213 217 218 221 221 221 225 228 229 233 237 240 243 246 250 254 257 260 264 268 271 274 277 279 282 285 287 289 289 290 289 288 287 286 285 285 284 283 281 281 281 281 281
225 225 226 230 230 229 232 234 236 239 241 244 248 251 254 257 260 263 265 267 270 273 275 277 279 281 282 284 286 286 286 286 286 286 284 283 282 282 281 279 278 278 279
236 234 233 233 235 235 236 239 241 243 245 248 251 254 256 258 261 263 265 268 270 272 274 275 277 278 279 281 282 282 283 283 284 284 284 283 282 281 281 279 278 277 278
240 239 239 238 240 242 242 244 246 246 248 249 250 254 257 260 262 265 267 268 270 272 273 274 275 276 278 279 280 281 281 282 282 282 282 282 281 281 280 279 278 278 278
245 245 247 247 246 248 248 249 250 250 252 250 252 256 259 261 263 264 265 267 269 271 272 273 274 275 277 278 279 279 280 281 281 280 280 280 280 280 279 277 277 278 279
263 257 256 257 255 254 255 255 255 255 254 256 257 259 261 262 264 265 266 267 270 271 272 273 275 275 276 278 278 279 279 279 279 279 278 278 278 279 278 278 277 277 277
271 263 266 264 263 266 264 260 263 263 259 260 262 262 264 264 265 267 267 267 271 271 271 274 274 275 275 276 277 278 278 278 278 277 276 277 276 277 277 278 277 276 275
274 274 274 270 273 272 274 271 267 267 266 267 269 267 266 266 267 268 270 269 271 271 272 274 275 276 276 276 277 277 277 277 277 276 276 276 276 277 277 277 277 276 276
282 278 278 277 281 281 277 277 275 271 268 267 268 269 268 268 269 271 273 271 271 272 270 273 275 274 274 275 275 275 275 275 275 276 276 277 277 277 277 277 277 276 275
284 283 282 283 283 281 279 279 279 276 275 273 273 273 273 272 273 272 272 272 272 271 271 273 274 274 274 274 275 275 275 275 275 276 277 277 277 277 277 277 277 276 275
285 286 286 285 285 283 282 282 282 278 276 273 274 276 275 274 274 274 273 274 275 274 273 274 275 276 276 276 276 276 275 275 275 276 276 276 275 275 276 276 275 275 275
287 286 286 287 288 287 286 285 284 282 280 277 277 277 276 275 274 274 274 275 275 275 275 274 276 277 277 277 277 277 277 277 277 276 276 275 275 274 275 275 274 275 274
288 288 287 287 289 290 289 288 286 284 281 280 279 278 277 276 275 275 275 275 275 277 277 278 278 278 278 278 278 278 278 278 278 277 276 276 275 275 275 275 274 274 273
287 287 288 287 288 288 290 289 286 285 284 282 281 282 281 280 280 279 279 279 279 280 280 280 281 281 280 280 279 279 278 278 278 277 277 277 276 276 275 275 274 273 272
287 287 288 288 288 288 288 288 287 286 286 285 284 284 284 283 282 282 283 282 282 282 282 283 282 282 281 281 281 281 280 280 280 279 278 278 277 277 276 276 275 274 273
286 287 287 288 288 288 288 288 288 287 287 286 286 286 285 284 283 283 283 283 283 284 283 283 283 283 283 283 283 283 282 282 281 281 280 280 279 278 277 276 275 274 274
289 289 290 290 290 290 290 289 288 288 288 287 287 287 286 286 285 285 285 285 285 285 285 285 285 285 285 284 284 283 282 281 281 281 281 281 281 280 279 278 276 274 274
290 290 290 290 290 290 290 290 289 289 289 289 288 288 288 288 288 287 287 287 287 287 287 287 287 287 287 286 286 285 284 283 283 282 282 282 282 281 279 278 277 275 274
292 292 291 291 291 291 291 291 291 290 290 290 289 289 288 288 288 288 288 288 289 289 289 289 289 289 288 288 288 288 286 285 285 285 285 285 284 283 281 280 279 276 274
293 293 293 293 292 293 293 293 293 293 292 292 291 290 290 290 290 290 291 291 291 291 291 290 290 291 291 291 291 290 289 287 287 287 288 288 286 285 284 282 280 277 275
294 294 294 295 295 294 294 294 294 293 293 292 292 291 290 290 291 292 292 292 292 292 292 292 292 293 293 293 293 293 293 291 290 291 292 293 291 289 287 284 282 279 276
295 295 295 295 295 295 295 295 295 294 293 292 292 291 291 292 292 293 293 293 293 293 293 294 295 296 296 296 295 295 295 296 296 298 299 298 296 294 291 288 285 282 279
296 296 297 297 297 297 296 296 295 295 294 293 293 293 293 294 294 294 294 293 294 295 296 297 299 300 300 299 298 298 299 300 301 301 303 304 303 301 297 294 289 286 283
298 298 299 299 299 299 298 297 296 296 295 294 294 293 294 295 295 294 295 294 294 296 298 300 302 303 303 302 300 299 298 300 302 303 305 306 306 304 302 300 296 292 289
300 300 301 301 301 301 300 299 298 297 296 295 295 294 295 296 296 295 296 297 296 297 299 302 304 305 306 306 305 302 300 301 303 306 308 309 311 311 311 308 304 300 296
302 302 302 302 302 302 301 300 299 298 297 297 297 297 297 298 297 296 297 298 297 299 300 302 305 307 307 307 308 307 305 304 305 306 307 310 311 311 311 311 309 306 301